Flag for Algeria Weather past 2 weeks in Oran, Algeria

Now
79 °F

Clear.


Feels Like: 79 °F
Forecast: 71 / 86 °F
Wind: 8 mph from Southwest

Location: Oran / Es Senia

Current Time: Jul 23, 2014 at 10:49:54 PM

Latest Report: Jul 23, 2014 at 10:00 PM


Visibility: 10 mi

Pressure: 29.86 "Hg

Humidity: 45%

Dew point: 55 °F

Location of OranLocation

Historic Weather in Oran — Graph

°F

Oran temperature yesterday

Maximum temperature yesterday: 91 °F (at 12:30 PM)
Minimum temperature yesterday: 63 °F (at 5:30 AM)
Average temperature yesterday: 77 °F

Past Weeks' High & Low Weather Summary

 TemperatureHumidityPressure
High100 °F (Jul 18, 4:00 PM)94% (Jul 9, 3:00 AM)30.09 "Hg (Jul 9, 3:00 AM)
Low63 °F (Jul 21, 4:00 AM)12% (Jul 19, 4:00 PM)29.80 "Hg (Jul 23, 6:00 PM)
Average78 °F65%29.99 "Hg
* Reported Jul 8 9:00 PM — Jul 23 9:30 PM, Oran, Weather by CustomWeather, © 2014

Note: Actual official high and low records may vary slightly from our data, if they occured in-between our weather recording intervals... More about our weather records

Advertising

Oran weather history for previous 24 hours

 ConditionsComfort  
Time TempWeatherWind HumidityBarometerVisibility
9:30 PM
Jul 23
81 °FClear.12 mph42%29.83 "Hg10 mi
8:30 PM81 °FClear.6 mph42%29.83 "Hg10 mi
8:00 PM81 °FSunny.10 mph42%29.80 "Hg10 mi
7:30 PM82 °FSunny.9 mph40%29.83 "Hg10 mi
7:00 PM84 °FSunny.12 mph37%29.83 "Hg10 mi
6:30 PM84 °FSunny.14 mph45%29.80 "Hg10 mi
6:00 PM84 °FSunny.12 mph45%29.80 "Hg10 mi
5:30 PM84 °FSunny.14 mph51%29.83 "Hg10 mi
5:00 PM84 °FSunny.15 mph51%29.83 "Hg10 mi
4:30 PM86 °FSunny.13 mph49%29.83 "Hg10 mi
4:00 PM86 °FSunny.17 mph49%29.83 "Hg10 mi
3:30 PM86 °FSunny.16 mph49%29.83 "Hg10 mi
3:00 PM86 °FSunny.16 mph49%29.83 "Hg10 mi
2:30 PM84 °FSunny.16 mph55%29.86 "Hg10 mi
2:00 PM86 °FSunny.14 mph52%29.86 "Hg10 mi
11:00 AM86 °FSunny.5 mph59%29.89 "Hg10 mi
10:30 AM84 °FSunny.No wind51%29.92 "Hg10 mi
10:00 AM79 °FSunny.No wind61%29.92 "Hg10 mi
6:30 AM64 °FSunny.No wind60%29.89 "Hg10 mi
6:00 AM64 °FSunny.No wind60%29.89 "Hg10 mi
5:00 AM66 °FClear.2 mph56%29.89 "Hg10 mi
4:30 AM66 °FClear.2 mph56%29.89 "Hg10 mi
3:30 AM70 °FClear.2 mph57%29.89 "Hg10 mi
3:00 AM70 °FClear.5 mph57%29.89 "Hg10 mi
2:30 AM70 °FClear.7 mph60%29.89 "Hg10 mi
2:00 AM72 °FClear.2 mph57%29.89 "Hg10 mi
1:30 AM72 °FClear.No wind47%29.89 "Hg10 mi
1:00 AM72 °FClear.No wind47%29.92 "Hg10 mi
12:00 AM73 °FClear.2 mph61%29.92 "Hg10 mi
Weather by CustomWeather, © 2014

See weather overviewHow to use our weather pages